User: anonymous   Login
Location: Diebersbach
(48.5163°N, 8.0558°E)
Time: 01:04:08
(UTC+00:00)
Language:

ADEOS Rocket - Orbit

View from above orbital plane
View from above orbital plane
View from above satellite
View from above satellite

Ground track
Ground track

The orbit data is extracted from the following two-line orbital elements,

1 24279U 96046C   21260.38344212  .00000016  00000-0  68843-4 0  9997
2 24279  98.7465  29.8090 0298995 287.3376 131.7725 13.47194151233090
Epoch (UTC): 17 September 2021 09:12:09
Eccentricity: 0.0298995
inclination: 98.7465°
perigee height: 859 km
apogee height: 1305 km
right ascension of ascending node: 29.8090°
argument of perigee: 287.3376°
revolutions per day: 13.47194151
mean anomaly at epoch: 131.7725°
orbit number at epoch: 23309

The dashed part of the orbit path shows where the satellite is in the earth's shadow,  

DLR